sat.trackr.live / text

‹ back to catalog

STARLINK-32004

NORAD 60151 · 2024-120S

PAYLOAD ACTIVE UNKNOWN

§ Identity

Operator
Country
US
Launch date
2024-06-27
Launch site
AFETR
Launch vehicle
Mass (kg)
RCS (m²)

Purposes: comms

External: N2YO · Heavens-Above · Gunter

§ Orbital elements

Epoch: 2026-09-21T20:15:21.498048Z

Period
93.85 min
Inclination
53.1586°
Eccentricity
0.0001158
Mean motion
15.34399493 rev/d
Perigee alt
461.9 km
Apogee alt
463.5 km
Semi-major
6,840.8 km
B*
-1.1498e-5
RAAN
125.5875°
Arg perigee
87.9720°
Mean anomaly
272.1415°
Rev number
12,653

§ Raw data

STARLINK-320041 60151U 24120S   26264.84399882 -.00000765  00000+0 -11498-4 0  99992 60151  53.1586 125.5875 0001158  87.9720 272.1415 15.34399493126533

JSON: /api/v1/satellites/60151 · /tle

For live sub-satellite position, see the globe view (requires WebGL).

§ Visibility from observer

Set your observer location to see the next 7 days of passes ≥ 10°. The values pass through the URL so the page stays shareable.

No JS? Fill the form by hand. The geolocation button needs JavaScript.